Key Field
KMEI : rendu visible

Aérodrome :











RETROUVEZ-NOUS SUR...

 
LOGIN :

S'inscrire | Disclaimer

   EN    FR    IT 

 









Légende :    VFR   VFR Marginal   IFR   IFR Intensif   IFR Très Intensif
Visi : 
Plafond : 
>= 8 km
>= 3000ft
5 à 8 km
1000 à 3000 ft
1500m à 5 km
500 à 1000 ft
800 à 1500m
200 à 500 ft
< 800m
< 200 ft
Symboles :   Orages  Brouillard  Fortes neiges  Fortes précipitations  Vent > 20 kt






- Altitude de l'aérodrome : 297 ft
- Code IATA : MEI


KMEI - Key Field

DERNIER METAR :
  • 221858Z 08005KT 10SM SCT036 29/19 A3004 RMK AO2 SLP168 T02890194

METARs EXPIRÉS :
  • 221758Z 09003KT 10SM FEW027 29/21 A3007 RMK AO2 SLP179 T02890206 10289 20178 58017
  • 221658Z VRB03KT 10SM SCT023 28/21 A3009 RMK AO2 SLP187 T02780211

TAF KMEI
Valide du 22 à 18h jusqu'au 23 à 18h UTC


221720Z 2218/2318 11007KT P6SM SCT035
FM231200 10003KT P6SM BKN025
FM231600 15005KT P6SM SCT040
FIR KZME / Amérique du Nord



MET'MAP, la Météo Aéronautique d'un coup d'oeil ! - Copyright ORBIFLY Décembre 2007 - Disclaimer

ORBIFLY MET'MAP TEAM :

Programmation & Développement : Alexandra Zaïnal
Sur une idée originale de : Baudouin d'Aumeries
Assistance à la programmation : Marc-Olivier Méhu
Soutien technique & logistique : Manuel Goepfert

Contact : metmap@orbifly.com




SOURCES & CREDITS :

   NOAA       Earth
Advisory